• In Hungary
  • List of Countries
  • For 7 days
  • Water Temperature
  • Satellite Maps
  • Weather Map
  • News
  • Weather Widgets
  • user-avatar
    Login

    Hourly Weather Multan

    Today, 19 January, Friday

    Time Temperature Precipitation Wind Pressure Humidity
    00:00 +15°C° 0 mm 2 mps 752 mmHg 20%
    01:00 +15°C° 0 mm 2 mps 752 mmHg 21%
    02:00 +14°C° 0 mm 2 mps 752 mmHg 21%
    03:00 +14°C° 0 mm 1 mps 752 mmHg 23%
    04:00 +14°C° 0 mm 1 mps 752 mmHg 24%
    05:00 +13°C° 0 mm 1 mps 752 mmHg 26%
    06:00 +13°C° 0 mm 1 mps 752 mmHg 25%
    07:00 +13°C° 0 mm 0 mps 752 mmHg 24%
    08:00 +13°C° 0 mm 0 mps 753 mmHg 23%
    09:00 +16°C° 0 mm 0 mps 753 mmHg 19%
    10:00 +19°C° 0 mm 0 mps 753 mmHg 16%
    11:00 +22°C° 0 mm 0 mps 753 mmHg 12%
    12:00 +23°C° 0 mm 0 mps 753 mmHg 11%
    13:00 +24°C° 0 mm 0 mps 753 mmHg 10%
    14:00 +25°C° 0 mm 0 mps 752 mmHg 9%
    15:00 +26°C° 0 mm 1 mps 752 mmHg 10%
    16:00 +25°C° 0 mm 1 mps 752 mmHg 11%
    17:00 +23°C° 0 mm 1 mps 752 mmHg 12%
    18:00 +21°C° 0 mm 1 mps 753 mmHg 13%
    19:00 +20°C° 0 mm 1 mps 753 mmHg 14%
    20:00 +18°C° 0 mm 1 mps 754 mmHg 15%
    21:00 +18°C° 0 mm 1 mps 754 mmHg 15%
    22:00 +16°C° 0 mm 1 mps 754 mmHg 16%
    23:00 +16°C° 0 mm 1 mps 754 mmHg 16%

    Tomorrow, 20 January, Saturday

    Time Temperature Precipitation Wind Pressure Humidity
    00:00 +15°C° 0 mm 1 mps 753 mmHg 17%
    01:00 +15°C° 0 mm 2 mps 753 mmHg 17%
    02:00 +14°C° 0 mm 2 mps 753 mmHg 18%
    03:00 +14°C° 0 mm 2 mps 753 mmHg 18%
    04:00 +13°C° 0 mm 1 mps 752 mmHg 18%
    05:00 +13°C° 0 mm 1 mps 752 mmHg 18%
    06:00 +13°C° 0 mm 1 mps 752 mmHg 18%
    07:00 +13°C° 0 mm 1 mps 752 mmHg 17%
    08:00 +13°C° 0 mm 1 mps 753 mmHg 17%
    09:00 +18°C° 0 mm 1 mps 753 mmHg 14%
    10:00 +20°C° 0 mm 2 mps 753 mmHg 11%
    11:00 +24°C° 0 mm 2 mps 753 mmHg 8%
    12:00 +25°C° 0 mm 2 mps 752 mmHg 7%
    13:00 +27°C° 0 mm 2 mps 751 mmHg 6%
    14:00 +28°C° 0 mm 2 mps 750 mmHg 5%
    15:00 +27°C° 0 mm 2 mps 750 mmHg 7%
    16:00 +25°C° 0 mm 1 mps 750 mmHg 8%
    17:00 +24°C° 0 mm 1 mps 750 mmHg 9%
    18:00 +22°C° 0 mm 1 mps 750 mmHg 9%
    19:00 +21°C° 0 mm 1 mps 750 mmHg 9%
    20:00 +19°C° 0 mm 1 mps 750 mmHg 10%
    21:00 +18°C° 0 mm 1 mps 750 mmHg 11%
    22:00 +18°C° 0 mm 1 mps 750 mmHg 11%
    23:00 +16°C° 0 mm 2 mps 750 mmHg 12%

    Day after tomorrow, 21 January, Sunday

    Time Temperature Precipitation Wind Pressure Humidity
    00:00 +16°C° 0 mm 2 mps 750 mmHg 13%
    01:00 +15°C° 0 mm 2 mps 750 mmHg 14%
    02:00 +15°C° 0 mm 2 mps 750 mmHg 15%
    03:00 +14°C° 0 mm 2 mps 749 mmHg 15%
    04:00 +14°C° 0 mm 2 mps 749 mmHg 16%
    05:00 +13°C° 0 mm 2 mps 749 mmHg 17%
    06:00 +14°C° 0 mm 2 mps 749 mmHg 17%
    07:00 +14°C° 0 mm 2 mps 750 mmHg 18%
    08:00 +14°C° 0 mm 2 mps 750 mmHg 18%
    09:00 +17°C° 0 mm 2 mps 750 mmHg 15%
    10:00 +20°C° 0 mm 2 mps 751 mmHg 13%
    11:00 +24°C° 0 mm 2 mps 751 mmHg 10%
    12:00 +26°C° 0 mm 2 mps 750 mmHg 9%
    13:00 +27°C° 0 mm 2 mps 749 mmHg 8%
    14:00 +28°C° 0 mm 2 mps 749 mmHg 7%
    15:00 +27°C° 0 mm 2 mps 748 mmHg 9%
    16:00 +26°C° 0 mm 1 mps 748 mmHg 10%
    17:00 +25°C° 0 mm 1 mps 748 mmHg 11%
    18:00 +23°C° 0 mm 1 mps 749 mmHg 13%
    19:00 +21°C° 0 mm 1 mps 749 mmHg 16%
    20:00 +18°C° 0 mm 2 mps 749 mmHg 18%
    21:00 +17°C° 0 mm 2 mps 749 mmHg 17%
    22:00 +17°C° 0 mm 2 mps 749 mmHg 17%
    23:00 +16°C° 0 mm 2 mps 749 mmHg 16%

    22 January, Monday

    Time Temperature Precipitation Wind Pressure Humidity
    00:00 +16°C° 0 mm 1 mps 749 mmHg 17%
    01:00 +15°C° 0 mm 1 mps 749 mmHg 19%
    02:00 +14°C° 0 mm 1 mps 749 mmHg 20%
    03:00 +14°C° 0 mm 1 mps 749 mmHg 20%
    04:00 +14°C° 0 mm 1 mps 748 mmHg 19%
    05:00 +13°C° 0 mm 1 mps 748 mmHg 18%
    06:00 +14°C° 0 mm 1 mps 749 mmHg 18%
    07:00 +14°C° 0 mm 1 mps 749 mmHg 18%
    08:00 +14°C° 0 mm 1 mps 749 mmHg 18%
    09:00 +18°C° 0 mm 1 mps 750 mmHg 15%
    10:00 +20°C° 0 mm 2 mps 750 mmHg 13%
    11:00 +24°C° 0 mm 2 mps 750 mmHg 10%
    12:00 +25°C° 0 mm 1 mps 749 mmHg 10%
    13:00 +26°C° 0 mm 1 mps 748 mmHg 9%
    14:00 +27°C° 0 mm 1 mps 747 mmHg 8%
    15:00 +26°C° 0 mm 1 mps 747 mmHg 9%
    16:00 +25°C° 0 mm 1 mps 747 mmHg 10%
    17:00 +24°C° 0 mm 1 mps 747 mmHg 11%
    18:00 +23°C° 0 mm 1 mps 747 mmHg 12%
    19:00 +21°C° 0 mm 1 mps 747 mmHg 13%
    20:00 +18°C° 0 mm 2 mps 748 mmHg 14%
    21:00 +17°C° 0 mm 2 mps 748 mmHg 15%
    22:00 +16°C° 0 mm 2 mps 748 mmHg 15%
    23:00 +16°C° 0 mm 2 mps 748 mmHg 16%

    23 January, Tuesday

    Time Temperature Precipitation Wind Pressure Humidity
    00:00 +15°C° 0 mm 2 mps 747 mmHg 17%
    01:00 +15°C° 0 mm 2 mps 747 mmHg 17%
    02:00 +14°C° 0 mm 2 mps 747 mmHg 18%
    03:00 +13°C° 0 mm 3 mps 747 mmHg 18%
    04:00 +12°C° 0 mm 3 mps 747 mmHg 19%
    05:00 +12°C° 0 mm 3 mps 747 mmHg 20%
    06:00 +12°C° 0 mm 3 mps 747 mmHg 20%
    07:00 +12°C° 0 mm 3 mps 748 mmHg 20%
    08:00 +12°C° 0 mm 3 mps 748 mmHg 20%
    09:00 +16°C° 0 mm 3 mps 749 mmHg 18%
    10:00 +18°C° 0 mm 3 mps 749 mmHg 15%
    11:00 +21°C° 0 mm 4 mps 749 mmHg 12%
    12:00 +23°C° 0 mm 4 mps 748 mmHg 12%
    13:00 +25°C° 0 mm 5 mps 748 mmHg 11%
    14:00 +26°C° 0 mm 5 mps 747 mmHg 10%
    15:00 +25°C° 0 mm 5 mps 747 mmHg 11%
    16:00 +25°C° 0 mm 4 mps 747 mmHg 12%
    17:00 +23°C° 0 mm 4 mps 747 mmHg 13%
    18:00 +21°C° 0 mm 3 mps 748 mmHg 15%
    19:00 +19°C° 0 mm 3 mps 748 mmHg 17%
    20:00 +16°C° 0 mm 2 mps 749 mmHg 19%
    21:00 +16°C° 0 mm 2 mps 749 mmHg 21%
    22:00 +15°C° 0 mm 2 mps 749 mmHg 22%
    23:00 +14°C° 0 mm 1 mps 749 mmHg 24%

    24 January, Wednesday

    Time Temperature Precipitation Wind Pressure Humidity
    00:00 +14°C° 0 mm 1 mps 749 mmHg 25%
    01:00 +13°C° 0 mm 1 mps 749 mmHg 26%
    02:00 +12°C° 0 mm 1 mps 749 mmHg 27%
    03:00 +12°C° 0 mm 1 mps 749 mmHg 30%
    04:00 +12°C° 0 mm 1 mps 749 mmHg 33%
    05:00 +11°C° 0 mm 1 mps 749 mmHg 36%
    06:00 +12°C° 0 mm 1 mps 749 mmHg 35%
    07:00 +12°C° 0 mm 1 mps 750 mmHg 35%
    08:00 +12°C° 0 mm 1 mps 750 mmHg 35%
    09:00 +16°C° 0 mm 1 mps 751 mmHg 29%
    10:00 +20°C° 0 mm 1 mps 751 mmHg 23%
    11:00 +23°C° 0 mm 2 mps 751 mmHg 17%
    12:00 +24°C° 0 mm 2 mps 750 mmHg 15%
    13:00 +25°C° 0 mm 1 mps 750 mmHg 12%
    14:00 +26°C° 0 mm 1 mps 749 mmHg 10%
    15:00 +26°C° 0 mm 1 mps 749 mmHg 11%
    16:00 +25°C° 0 mm 1 mps 749 mmHg 12%
    17:00 +24°C° 0 mm 1 mps 749 mmHg 12%
    18:00 +22°C° 0 mm 1 mps 749 mmHg 15%
    19:00 +19°C° 0 mm 2 mps 749 mmHg 18%
    20:00 +17°C° 0 mm 2 mps 750 mmHg 20%
    21:00 +16°C° 0 mm 2 mps 750 mmHg 21%
    22:00 +16°C° 0 mm 2 mps 750 mmHg 21%
    23:00 +15°C° 0 mm 2 mps 750 mmHg 21%
    Show more